Погода в Таллинне

Погода в Таллинне : погода сейчас, прогноз погоды и архив. Всё, что Вы хотите узнать о погоде в Таллинне!

Поиск расширенной информации на нашем сайте:

Другие новости

Новости СМИ2

Главная страница сайта

Новости сайта

03.07.2017

Напоминаем, что на нашем специализированном сайте Метеоцентр.Азия вы можете получить высокодетализированные автоматические прогнозы погоды по пунктам России, СНГ и мира в авиационном формате (включающие направление и скорость ветра, видимость, явления погоды, количество и форму облачности, нижнюю и верхнюю границу облачности).


Погода в Таллинне - сегодня

Время (UTC), дата Ветер
(°,м/с) 
Видим.   Явления Облачность Т
(°С)
Тd
(°С)
f(%) Тe
(°С)
Pmin
(гПа)
dP
(гПа)
Po
(мм)
O2
(г/м3)
Тmin Tmax R s Состояние
почвы
00 16.10.17 190 (Ю) 20000 м  ливневой дождь  10/10 120 м кучево-дожд. 
[Cb cap]
+9.1 +8.9 99 +9  1014.6  -1.4  758  294  +7.6  +12.8     
03 16.10.17 200 (Ю) 20000 м  {ливн. осадки}  9/9 240 м 
[Sc]
+9.7 +9.1 96 +9  1011.4  -3.2  755  292  +7.6  +10.4  0.1     
06 16.10.17 220 (ЮЗ) 3{09}  20000 м  {ливн. осадки}  10/10 150 м 
[St]
+11.6 +11 96 +13  1009  -2.4  754  289  +7.6  +11.6       
09 16.10.17 230 (ЮЗ) 5-9{09}  16000 м  в посл. час ливневой дождь  10/10 210 м 
[St]
+12.6 +11.7 94 +15  1007.1  -1.9  752  288  +8.5  +12.6  0.2     
15 16.10.17 260 (З) 5-8{12}  20000 м    3/1 средняя, верхняя 
[Ac trans|Ci fib]
+12.8 +10.8 88 +14  1007.4  0.9  753  288  +9.7  +13.9       
18 16.10.17 310 (СЗ) 3{08}  20000 м    ясно 
+10.6 +6 73 +10  1010.7  3.3  755  292  +10.6  +13.9       
21 16.10.17 290 (З) 3{08}  20000 м    ясно 
+9.2 +3.9 69 +9  1013.3  2.6  757  294  +8.9  +13.9       
00 17.10.17 250 (З) 20000 м    ясно 
+5.9 +3.4 84 +7  1014.7  1.4  758  298  +5.9  +13.9       
03 17.10.17 230 (ЮЗ) 20000 м    ясно 
[]
+3.8 +2.8 93 +5  1015.4  0.7  758  301  +3.6  +12.8       
15 17.10.17 240 (ЮЗ) 5-10{10}  16000 м  слаб. ливневой дождь{морось}  10/10 120 м 
[St]
+11.8 +11.3 97 +14  1005.2  -4.6  751  288  +3.5  +11.8  0.8     
18 17.10.17 240 (ЮЗ) 6-9{11}  8000 м  дымка{ливн. осадки, морось}  10/10 180 м 
[St]
+12.1 +11.5 96 +14  1003  -2.2  749  287  +7.2  +12.5  0.6     
21 17.10.17 240 (ЮЗ) 5-8{11}  16000 м  в посл. час ливневой дождь  9/9 400 м 
[St]
+11.7 +10.4 92 +13  1002.3  -0.7  749  287  +7.4  +12.5       
00 18.10.17 250 (З) 6-11{13}  15000 м  ливневой дождь  9/9 330 м кучево-дожд. 
[Cb cap]
+11.3 +10.3 94 +12  1001  -1.3  748  287  +8.5  +12.5     
06 18.10.17 290 (З) 3{12}  20000 м  слаб. ливневой дождь  9/9 210 м кучево-дожд. 
[Cb cap]
+10.2 +9.4 95 +10  999.9  0.4  747  288  +10.1  +12.3     
09 18.10.17 320 (СЗ) 3-8{09}  20000 м  {ливн. осадки}  9/9 540 м 
[Sc]
+8.1 +5.1 81 +7  1004.2  4.3  750  293  +8.1  +11.9       
15 18.10.17 280 (З) 2{08}  20000 м    8/8 840 м 
[Sc]
+8.8 +4.4 74 +9  1008.7  1.6  754  293  +8.1  +11.3       
21 18.10.17 300 (СЗ) 4{08}  20000 м  {ливн. осадки}  8/8 840 м кучево-дожд. 
[Cb cap]
+8.9 +3.9 71 +8  1011.4  1.2  756  294  +7.7  +9.5  0.4     
03 19.10.17 300 (СЗ) 20000 м    4/4 700 м 
[Sc]
+7.1 +4 81 +7  1014.1  1.2  758  297  +6.8  +9       
06 19.10.17 260 (З) 20000 м    4/3 660 м средняя 
[Sc|Ac trans]
+4.3 +2.8 90 +5  1015.7  1.6  759  301  +4.3  +8.9       
09 19.10.17 320 (СЗ) 20000 м    8/8 600 м 
[Cu Sc]
+9.4 +5 74 +9  1017.6  1.9  760  295  +4  +9.7       
12 19.10.17 320 (СЗ) 20000 м    8/8 600 м средняя 
[Cu Sc|Ac trans]
+9.9 +5.3 73 +9  1018.4  0.8  761  295  +4  +10.7       
15 19.10.17 270 (З) 20000 м    4/4 800 м 
[Sc]
+7.8 +4 77 +9  1018.9  0.5  761  298  +4  +10.7       
18 19.10.17 350 (С) 20000 м    3/3 800 м 
[Sc]
+6.3 +3.3 81 +7  1020.4  1.5  762  300  +4  +10.7       
21 19.10.17 250 (З) 20000 м    1/1 720 м 
[Sc]
+1.7 +1.2 96 +2  1021.6  1.2  763  305  +1.5  +10.7       
00 20.10.17 240 (ЮЗ) 20000 м    3/3 800 м 
[Sc]
-0.3 -0.3 100 1022.1  0.5  763  308  -0.3  +10.2       
Время (UTC), дата Ветер
(°,м/с) 
Видим.   Явления Облачность Т
(°С)
Тd
(°С)
f(%) Тe
(°С)
Pmin
(гПа)
dP
(гПа)
Po
(мм)
O2
(г/м3)
Тmin Tmax R s Состояние
почвы

Для получения пояснительной информации подведите курсор к названию столбца.

ПОГОДА в Таллинне - архив

Всё, что Вы хотите узнать о погоде в Таллинне - удобно и подробно!

Выберите нужную дату (начиная с 1 января 2015* года) и нажмите кнопку "Найти".
Будут отображены архивные сводки погоды по пункту Таллинн, начиная с указанной даты.


Отображать данные в формате CSV (для использования в таблицах Excel)


Внимание! Наш архив погоды предназначен исключительно для личного некоммерческого использования в познавательных целях. Если Вам необходимы официальные справки о состоянии погоды (для производственных, юридических, коммерческих и т.п. целей), обращайтесь в органы Росгидромета.

*Примечание: данная дата относится к архиву по метеостанциям СССР (Россия, СНГ, Балтия).
Архив по метеостанциям Зарубежной Европы и Азии (кроме Китая) хранится 10 дней, по другим регионам земного шара (Китай, Африка, Америка, Австралия, Океания) - 1 день.

Таллинн - район местоположения метеостанции


Название, широта, долгота, высота метеостанции:
Таллинн 59.4°ш. 24.6°д. 34 м над ур. моря [Эстония]

Дополнительная информация

В oтличие oт бoльшинства пoгoдных сайтoв мы публикуем пoдрoбную метеoинфoрмацию в детальнoм прoфессиoнальнoм фoрмате.

Характеристики температуры и влажнoсти вoздуха измеряются на высoте 2 м в тени вдали oт зданий и деревьев.
Скoрoсть ветра измеряется на высoте 10 м (на урoвне рoста челoвека скoрoсть ветра ниже в 1.5-2 раза). Если метеoстанция нахoдится в гoрoде или в лесу, тo скoрoсть ветра занижена на 2-4 м/с пo сравнению с oткрытым местoм. Скoрoсть ветра над акватoриями крупных рек и oзёр, а также на вершинах хoлмoв на 2-5 м/с выше, чем в oбычных услoвиях.
Атмoсфернoе давление в разных тoчках местнoсти мoжет значительнo oтличаться oт давления на метеoстанции, в зависимoсти oт услoвий рельефа (при пoдъёме на 10 м давление пoнижается примернo на 1 мм рт.ст.).